Wind_Speed
28 28 29 29 29 30 30 29 29 29 29 29 28 28 27 27 26 27 27 27 27 27 27 26 26 26 25 24 24 24 23 22 20 18 16 15 18 20 19 19 18 17 17 17 17 16 15 13 13 13 12 12 12 14 14 13 11 9 8 9 10 8 8 10 10 9 7 4 5 12 17 15 11 11 11 10 9 8 8 7 7 6 6 7 8 7 5 3
27 28 29 30 30 30 30 30 30 29 29 29 29 28 28 27 27 27 27 27 27 27 27 26 26 26 25 24 24 24 23 23 21 19 18 17 18 20 20 21 20 19 19 19 18 18 16 15 14 13 12 12 12 14 13 13 12 10 9 10 10 8 9 11 11 10 8 6 8 11 15 16 14 13 12 10 8 9 8 8 8 7 8 9 8 6 5 4
27 28 28 29 30 31 31 31 30 30 30 30 29 29 28 28 28 28 28 28 28 27 27 26 26 26 25 24 24 24 23 23 20 20 21 20 19 19 21 22 21 20 20 21 20 20 18 18 16 14 13 12 13 14 13 13 12 11 12 10 9 9 11 13 14 13 12 12 11 11 14 14 14 15 13 12 10 10 9 9 9 8 9 8 6 5 4 5
26 27 28 29 30 31 31 31 31 30 30 30 29 29 29 28 28 28 28 28 28 27 27 26 26 26 25 24 24 23 23 21 20 21 22 21 21 21 21 22 21 21 21 22 22 22 20 20 18 16 14 13 15 14 14 13 11 13 14 10 9 11 10 11 15 14 13 14 13 14 12 7 12 15 15 14 9 8 8 10 10 8 8 7 5 5 4 3
25 26 27 28 29 30 31 32 31 31 31 31 30 29 29 28 29 28 29 28 28 28 27 26 26 26 25 24 23 23 21 16 19 23 22 22 23 22 22 22 22 21 22 23 23 22 21 21 19 18 16 14 16 15 14 15 13 13 14 12 11 12 9 10 16 15 13 13 12 11 7 7 13 12 16 17 7 7 10 11 13 10 9 8 6 5 4 2
25 25 26 27 28 29 30 31 32 32 32 31 31 30 29 29 29 29 29 28 29 28 27 27 27 27 25 25 24 23 20 14 17 21 20 23 23 23 24 23 23 21 21 23 23 23 22 22 20 19 18 16 17 14 13 17 15 12 12 13 12 12 11 13 16 14 12 12 11 8 8 15 15 8 15 17 7 10 12 10 11 8 8 9 7 5 4 3
25 25 25 26 27 28 29 31 32 32 32 32 32 31 30 29 29 29 29 29 29 28 28 27 27 27 26 26 24 24 23 18 18 18 17 20 21 23 24 24 24 22 21 21 23 24 23 23 21 19 18 16 17 14 14 16 15 13 12 13 11 13 15 16 16 13 11 10 10 10 11 15 13 8 13 14 9 11 11 8 7 6 7 7 7 6 4 3
24 24 25 25 26 27 28 30 31 32 33 33 32 32 31 30 29 29 29 29 29 29 29 28 28 28 27 26 25 25 24 20 20 19 15 15 18 22 24 25 25 23 21 20 22 22 22 23 21 21 18 16 17 15 16 15 15 17 15 12 12 13 15 17 17 14 11 9 10 11 11 12 12 12 11 9 9 10 9 7 6 7 7 7 7 5 3 2
23 24 24 25 25 26 27 28 30 32 32 33 33 32 31 30 30 29 29 29 29 29 29 28 28 28 28 27 26 27 23 19 21 23 19 15 15 19 23 25 25 24 22 20 22 21 21 22 20 21 17 16 19 17 17 14 12 17 17 13 11 12 13 17 17 13 10 9 10 9 9 10 12 12 9 7 8 8 7 6 7 9 9 9 8 5 4 2
23 24 24 24 25 26 26 27 29 30 32 33 32 32 31 31 30 30 30 29 30 29 29 29 28 28 29 27 27 27 22 20 23 23 22 20 16 16 20 24 25 24 22 21 21 19 19 19 19 21 18 18 19 18 17 14 11 14 15 14 13 12 13 17 17 14 10 8 11 9 6 10 12 11 7 7 8 7 6 5 9 12 10 10 8 6 5 4
23 23 24 24 25 25 25 26 27 29 31 32 32 32 32 31 31 30 30 30 30 29 29 29 29 30 29 28 29 27 22 21 23 24 24 23 20 17 17 21 24 24 23 22 19 18 18 18 20 20 17 18 19 17 18 17 14 14 13 13 14 13 14 19 19 15 11 7 10 10 6 10 12 10 7 8 9 8 8 7 11 14 11 10 9 7 7 5
24 23 23 24 24 25 25 26 26 28 29 31 31 31 31 31 31 31 31 30 29 29 30 29 30 30 29 31 30 23 22 24 24 24 24 23 22 21 19 18 21 23 24 22 20 20 20 20 21 19 16 17 16 15 17 18 16 14 12 9 11 12 13 19 18 14 12 8 11 12 8 11 12 12 12 9 9 9 8 8 14 17 13 11 11 9 8 6
25 24 23 23 24 24 24 25 26 27 28 29 30 31 31 31 31 31 31 30 29 29 30 30 31 30 31 33 26 22 25 26 25 24 23 23 23 22 22 20 19 22 25 25 25 24 22 22 21 21 20 15 13 15 14 16 16 13 12 9 8 11 13 17 18 16 13 11 13 14 11 13 14 15 13 10 10 10 8 9 15 19 14 12 13 11 9 8
25 25 25 24 23 24 24 24 24 25 26 27 29 30 30 30 31 31 30 30 29 29 30 30 31 30 33 30 23 24 26 26 26 24 22 23 23 22 23 22 21 22 26 28 29 27 25 24 22 23 24 16 13 17 12 12 16 13 12 11 10 12 14 18 19 17 14 11 14 16 13 12 14 15 12 12 12 11 10 11 15 18 16 13 14 13 12 11
25 25 25 24 24 24 23 23 23 23 24 26 27 28 29 29 30 30 29 29 29 30 30 30 30 30 32 28 24 25 25 25 24 22 23 24 23 23 22 23 24 23 26 30 31 31 28 26 25 23 23 21 16 15 11 11 14 13 13 13 13 13 14 17 20 18 15 12 14 19 14 8 12 14 12 13 14 12 13 14 15 16 17 16 16 14 12 13
24 25 25 24 24 23 23 23 22 22 22 23 25 26 28 29 29 29 28 29 30 30 29 30 29 29 28 25 25 25 24 25 23 22 24 25 24 24 24 24 25 24 26 31 32 32 30 26 25 21 19 21 18 14 13 13 14 15 15 13 15 16 12 16 21 20 17 13 17 20 13 5 10 13 12 14 15 14 16 17 17 18 20 19 16 13 12 12
23 23 24 24 24 23 23 22 21 21 21 22 23 24 27 28 27 27 28 29 29 29 29 29 28 28 26 23 22 24 25 25 24 24 24 26 27 26 26 25 25 25 25 29 31 30 29 27 26 24 20 19 19 16 16 16 16 18 17 12 14 17 12 15 20 21 19 15 17 18 9 5 12 14 15 16 16 16 18 19 19 19 20 20 17 14 14 14
22 22 23 24 23 22 22 21 20 20 20 20 22 24 25 25 26 27 28 29 28 29 29 28 28 24 20 20 21 21 24 26 25 25 25 27 28 27 27 26 25 24 24 27 28 28 28 27 26 23 21 20 20 21 19 17 16 18 18 13 13 16 13 14 19 21 20 17 18 16 9 7 14 18 18 18 17 17 18 19 19 19 19 20 18 14 13 15
22 22 22 22 22 21 21 20 19 19 19 19 21 22 23 23 25 26 27 29 29 29 27 25 26 21 12 14 21 21 22 26 26 26 27 28 29 30 29 27 24 23 24 24 25 28 27 25 25 23 23 24 23 23 19 13 13 16 18 14 13 17 14 11 15 21 21 18 17 15 12 11 15 20 20 18 17 16 16 16 19 20 20 21 20 16 14 15
21 21 22 21 21 20 19 19 18 18 17 18 20 20 20 20 21 23 27 29 29 28 26 24 23 21 17 14 18 21 20 23 27 27 28 29 30 31 31 29 26 23 23 22 22 27 26 23 27 26 24 24 23 23 17 11 12 15 17 15 14 17 16 12 13 21 23 16 14 15 16 16 17 20 20 17 17 15 15 16 19 22 22 23 22 20 17 15
20 20 20 20 19 19 18 18 17 16 16 17 19 19 19 19 18 19 24 26 26 27 27 26 23 22 24 20 17 20 22 24 27 29 29 30 31 31 33 32 29 26 23 21 20 25 26 24 27 26 22 22 23 22 16 12 13 14 16 16 15 17 17 14 14 21 23 16 14 16 17 19 19 20 19 17 16 14 15 15 18 22 25 25 24 23 22 19
20 19 20 19 18 17 17 17 16 16 16 17 17 18 18 19 19 20 21 22 24 26 26 27 27 24 23 22 20 20 23 25 26 30 32 32 33 32 33 34 30 26 23 21 20 22 25 24 24 23 21 20 22 23 19 14 14 15 15 16 17 16 17 16 15 19 20 15 15 16 16 19 21 22 20 18 16 14 15 15 15 20 25 28 26 24 24 22
19 19 19 18 17 16 16 16 15 15 15 16 16 17 17 17 17 18 19 20 21 24 25 26 27 25 22 23 24 22 23 25 26 29 33 34 34 31 31 33 28 24 24 25 23 22 23 22 21 21 22 22 23 24 22 16 16 16 17 18 18 18 17 16 17 18 17 15 15 16 15 16 18 20 21 19 17 16 16 16 15 16 23 29 29 27 25 24
19 19 19 18 16 15 16 16 15 14 14 15 15 15 15 14 13 13 16 17 19 23 24 24 24 26 25 24 27 26 24 26 27 29 33 36 35 30 29 31 27 23 25 27 23 20 18 16 20 23 24 25 23 24 24 20 19 18 18 18 17 19 16 13 18 18 14 13 15 17 14 12 10 11 15 15 15 17 18 17 15 13 19 28 30 28 26 25
19 18 18 17 15 15 17 15 14 13 13 14 14 13 12 11 11 12 13 12 15 21 22 23 25 25 26 28 30 28 26 28 28 29 33 35 35 31 26 27 27 24 25 26 23 20 17 15 21 25 24 25 24 25 26 24 21 18 20 17 14 18 15 11 18 18 13 13 17 19 14 10 11 9 10 11 11 16 18 17 15 12 15 24 29 28 26 24
18 18 17 16 15 16 16 15 15 12 11 12 12 12 11 12 12 11 11 8 11 17 20 22 23 22 28 32 31 28 26 29 30 29 32 35 35 31 25 25 26 23 23 24 21 19 18 17 21 23 24 25 24 25 26 25 21 19 21 19 12 16 16 13 17 17 14 14 18 23 15 9 13 10 10 10 9 14 18 17 16 13 14 21 26 26 25 23
18 17 17 16 15 17 18 16 14 10 10 12 12 13 13 13 12 9 9 7 9 14 18 21 20 21 27 30 31 29 21 25 31 29 31 35 35 31 25 25 26 21 21 23 21 19 19 19 20 23 25 25 25 25 25 26 22 16 20 23 16 15 15 15 16 16 13 10 16 24 18 9 14 12 11 12 10 12 18 17 16 15 14 18 21 22 21 20
18 17 16 15 16 19 19 16 13 11 11 12 13 15 14 12 11 10 8 5 5 10 15 22 22 22 24 25 32 32 18 18 28 28 30 33 33 32 27 25 24 21 22 25 21 18 20 22 23 25 26 25 26 24 23 26 22 12 16 22 20 16 15 14 16 15 11 10 16 22 18 11 13 14 13 14 11 11 16 16 15 16 15 16 18 18 17 16
18 17 16 15 16 20 19 16 14 12 12 14 14 14 13 13 13 11 7 6 6 8 9 18 23 23 23 24 31 32 20 17 22 25 30 32 33 32 27 24 23 20 22 25 20 14 17 24 24 25 26 25 24 21 21 26 22 13 14 20 21 18 15 13 15 14 12 11 15 20 21 14 10 16 17 16 12 11 15 17 15 15 15 15 15 15 14 14
17 16 15 15 18 20 19 17 15 13 12 13 14 14 15 16 16 11 6 6 8 7 7 15 21 23 24 26 31 31 24 18 16 22 29 32 35 32 23 20 22 20 21 24 21 13 15 22 23 24 25 22 20 19 21 25 21 16 16 19 20 19 15 13 13 14 11 12 15 19 23 17 9 15 18 17 14 11 16 18 16 15 14 13 13 12 13 13
17 16 15 17 20 20 20 19 16 13 12 14 15 16 17 17 16 11 6 7 8 6 9 14 18 22 25 27 31 31 26 20 17 24 30 31 34 32 24 22 23 21 21 24 23 16 16 23 24 24 23 20 19 19 21 23 22 19 18 18 18 17 15 14 15 14 10 10 15 18 21 17 11 13 17 19 17 14 17 19 17 15 14 13 13 12 12 12
16 15 17 20 21 21 22 21 18 14 14 16 18 19 20 16 13 11 7 7 6 5 10 14 16 22 25 25 29 33 28 21 19 26 31 32 32 31 28 27 27 25 23 25 25 18 18 23 23 22 23 22 20 20 22 23 24 22 20 21 20 15 14 13 13 13 10 8 11 16 20 14 7 12 17 19 20 19 20 19 17 17 16 15 14 13 12 11
15 16 20 22 21 22 23 22 19 17 16 18 20 22 20 12 9 13 12 7 6 8 13 13 13 19 24 24 28 33 29 21 22 26 29 31 30 29 28 27 28 25 21 24 26 19 17 20 22 22 24 25 22 21 23 24 25 25 23 24 21 13 10 11 10 11 11 7 9 14 18 12 9 13 16 19 20 20 19 18 18 17 16 15 15 14 13 12
16 20 21 22 22 22 23 24 22 20 18 19 22 22 17 9 8 15 14 5 6 10 11 9 10 16 22 22 24 32 29 22 24 27 29 31 30 30 29 27 28 24 20 24 25 22 18 17 22 25 22 25 26 22 20 21 24 26 24 24 23 16 11 10 9 11 13 10 11 13 13 10 11 13 17 20 19 16 15 16 16 16 14 14 14 13 12 11
19 20 20 21 22 21 23 25 24 21 20 20 22 19 15 11 9 12 11 5 6 10 6 5 10 16 21 20 21 31 28 21 25 28 29 32 30 30 30 28 29 26 23 23 22 23 20 15 21 25 19 22 29 24 19 20 23 25 24 23 24 22 15 10 6 8 14 13 10 9 6 6 11 13 16 18 16 15 15 15 15 15 14 13 13 13 12 11
20 19 19 21 21 19 21 25 25 22 20 20 21 19 17 12 6 6 6 4 8 10 4 4 12 18 22 20 21 30 26 19 26 28 28 30 29 29 28 27 29 28 24 22 19 20 19 14 18 25 19 19 27 26 22 23 21 22 25 24 22 20 16 12 6 6 13 12 7 8 8 11 13 10 14 16 15 17 16 15 16 14 13 13 13 13 12 11
19 18 18 20 20 19 19 22 23 22 21 22 22 18 15 11 3 1 2 1 7 10 3 6 15 20 22 21 23 30 26 21 27 27 26 29 28 28 28 26 28 29 24 21 18 17 17 14 17 23 21 19 23 23 24 24 20 20 26 26 20 14 13 16 11 7 10 9 6 10 14 17 15 10 14 16 15 19 19 16 16 15 14 14 13 13 12 11
17 17 17 19 19 18 18 19 21 22 21 22 23 17 12 11 6 3 2 3 5 9 5 5 12 17 21 21 23 29 27 24 27 27 25 27 25 26 28 25 27 30 25 20 17 17 18 14 15 22 22 22 24 22 22 25 22 20 23 23 21 14 14 18 13 9 11 7 6 12 16 17 15 14 18 20 17 20 21 18 17 15 15 15 13 12 12 12
15 16 17 18 18 18 19 19 19 21 21 21 21 16 13 13 8 6 7 5 4 7 6 4 7 10 16 22 25 28 27 25 27 25 25 25 22 24 27 24 25 28 25 20 16 17 21 14 13 21 22 22 26 24 23 26 25 21 18 21 23 17 16 20 15 12 14 8 6 11 13 13 12 12 18 20 17 17 18 18 17 15 15 14 13 13 13 11
16 16 17 18 18 20 20 18 18 21 22 21 19 14 12 11 9 9 10 7 7 7 8 5 4 3 7 17 25 28 26 25 27 24 23 23 18 20 26 23 23 27 25 20 15 15 21 17 12 21 23 22 25 25 23 24 26 25 21 23 24 18 16 18 14 13 14 10 7 8 8 11 12 12 15 17 16 15 15 17 17 15 14 14 13 13 12 11
16 17 17 18 19 19 18 16 18 21 22 20 17 14 12 10 8 8 10 11 10 9 10 9 7 5 8 14 22 28 26 25 27 24 21 24 19 17 26 25 22 27 26 22 18 15 19 18 14 22 26 24 24 26 24 23 25 26 23 26 27 21 18 16 11 11 13 10 10 9 6 10 16 19 18 18 19 18 18 19 18 16 15 14 14 13 11 10
14 15 17 20 18 17 16 15 16 20 20 18 15 14 14 12 9 8 11 13 11 10 12 12 9 8 14 17 17 23 25 24 27 24 21 24 20 16 26 28 22 25 26 23 20 18 17 17 16 21 25 22 21 25 26 23 25 25 21 23 26 23 22 18 12 14 14 9 9 11 7 8 17 24 24 22 21 19 18 18 16 16 15 14 13 12 10 10
12 12 17 19 17 17 17 14 16 19 18 16 14 12 12 12 11 11 13 14 12 11 13 14 9 8 14 17 14 18 23 21 22 24 21 21 22 19 24 29 25 25 27 23 20 19 17 17 18 19 18 17 19 24 25 23 25 24 21 22 25 23 22 19 13 15 17 12 11 11 6 8 18 26 26 22 20 19 18 16 15 14 13 12 11 10 11 11
12 14 17 18 18 20 19 14 14 18 16 13 13 11 11 11 12 13 14 14 12 11 14 16 11 10 13 15 14 15 21 20 17 20 20 19 23 24 23 28 28 26 26 24 22 22 17 15 19 17 14 13 15 19 21 21 23 22 22 27 28 24 22 17 11 12 14 13 14 12 5 8 20 28 28 23 20 19 17 15 15 13 11 10 9 10 12 11
13 15 16 17 19 20 18 14 14 15 14 12 11 10 10 12 13 13 13 14 13 11 14 17 14 14 16 18 16 15 20 22 19 19 19 17 23 24 22 28 29 25 25 25 23 21 16 15 18 17 15 14 12 14 18 20 22 22 25 30 29 26 23 19 13 12 12 13 16 12 6 13 23 28 28 25 21 20 17 14 14 11 10 11 9 9 10 9
14 15 15 16 17 17 15 13 13 13 12 11 9 10 13 13 12 12 12 13 14 11 14 19 17 17 20 22 21 18 20 22 21 20 18 16 22 24 22 27 30 27 29 28 24 21 17 17 17 14 15 15 11 13 19 20 19 21 26 29 29 27 26 20 15 12 13 15 15 11 7 14 24 29 29 26 22 21 18 14 12 9 8 10 9 7 7 7
14 14 17 17 15 13 12 10 9 10 11 11 9 12 15 11 8 10 10 10 12 12 14 20 21 20 21 22 22 21 21 20 19 19 17 15 21 23 22 28 31 29 29 27 24 20 16 17 16 11 14 15 12 16 22 23 20 21 24 26 26 26 24 21 15 10 11 12 11 12 13 13 22 29 30 28 25 21 18 16 13 10 8 9 9 7 5 5
11 13 17 15 11 10 10 7 7 9 10 12 13 12 11 7 4 6 7 8 10 12 15 21 23 23 22 21 22 23 23 22 20 19 17 17 20 22 24 29 31 29 28 26 24 21 18 17 13 11 17 20 17 19 24 26 25 23 23 24 24 24 22 21 18 12 11 10 8 14 18 13 18 28 30 30 27 22 18 16 14 12 10 9 9 6 4 4
9 13 16 12 7 8 9 7 7 8 11 14 13 9 4 2 2 5 8 10 10 14 18 20 23 26 23 21 25 25 24 27 26 21 19 19 20 24 27 30 29 28 27 26 24 23 20 16 12 12 19 21 21 23 24 25 26 23 22 21 22 22 21 21 18 14 13 12 8 13 18 15 17 25 28 29 27 22 18 16 14 12 10 9 9 7 5 5
11 14 13 9 6 8 8 6 7 10 12 13 9 4 5 5 5 4 6 9 9 16 20 20 21 23 22 23 28 27 24 26 25 21 20 21 22 25 27 27 28 28 26 24 24 24 22 16 13 15 19 18 16 20 20 21 24 23 21 20 19 20 20 19 16 14 14 14 11 13 18 19 18 21 25 27 24 21 19 18 15 11 9 9 8 6 4 4
13 14 10 7 7 7 6 6 9 11 10 7 5 6 6 6 6 5 3 4 11 18 20 21 22 23 24 26 28 26 23 22 21 20 19 22 26 28 28 28 29 29 26 24 25 26 23 18 16 17 15 13 11 15 17 17 20 21 21 20 18 18 19 17 15 14 14 13 13 15 18 20 20 21 24 25 23 22 21 18 14 11 10 9 6 4 3 3
14 10 7 8 8 6 5 7 11 9 6 5 6 7 7 6 5 3 3 5 15 19 17 21 25 25 26 27 25 23 22 19 20 21 21 20 22 23 25 27 28 29 27 25 26 27 24 21 21 17 12 10 10 14 17 16 14 12 14 17 17 15 17 16 15 15 13 10 10 14 17 18 19 22 26 26 25 24 19 15 12 11 11 8 4 2 3 2
Wind_Direction
261 259 258 256 254 252 250 249 248 247 247 246 246 245 244 244 245 246 245 244 244 245 245 244 244 244 243 242 241 239 238 237 234 231 223 219 226 227 226 226 223 221 219 218 219 221 223 225 228 224 224 224 225 230 229 226 222 211 200 210 215 207 200 178 170 173 153 114 132 158 163 155 148 155 154 152 160 168 176 187 189 190 183 177 180 183 189 188
262 260 258 256 255 253 252 250 248 247 246 246 245 244 243 242 243 244 245 244 244 245 245 244 244 244 243 243 242 241 239 238 235 230 224 223 227 226 226 227 223 220 216 214 214 217 219 221 226 223 224 224 224 227 226 224 216 203 201 213 216 208 201 185 172 163 151 144 142 149 162 160 154 153 151 156 171 168 169 186 186 184 182 181 186 188 190 178
263 261 259 258 256 254 252 251 249 248 247 246 245 244 243 242 241 242 243 243 243 244 244 244 244 244 243 242 243 243 241 240 236 231 229 228 229 227 228 229 226 222 217 213 212 213 214 217 220 221 223 224 226 226 224 223 214 205 206 212 221 215 202 185 170 163 155 148 142 142 150 155 156 157 157 159 171 165 166 183 180 182 180 178 184 183 182 173
265 263 261 259 257 255 253 251 250 248 247 246 246 245 244 242 241 240 240 241 241 242 243 243 244 244 243 242 242 243 241 243 240 233 232 230 229 229 229 229 226 222 217 214 213 213 214 216 218 220 222 225 229 227 224 221 210 214 211 207 223 213 196 185 176 169 159 148 143 140 133 141 152 151 147 142 155 165 171 181 173 177 173 166 173 173 166 163
268 265 262 260 258 256 255 253 250 248 246 245 245 245 244 244 242 241 240 240 240 239 240 241 243 243 243 242 241 241 240 243 243 235 232 231 228 228 229 230 228 222 216 214 214 214 215 217 218 220 220 221 230 229 226 223 211 219 217 208 217 204 185 194 188 174 162 152 144 139 129 145 144 141 139 135 149 166 164 170 163 166 162 156 160 162 160 166
272 269 265 262 259 257 256 254 252 249 247 245 244 243 242 243 243 243 242 241 239 238 238 238 240 240 240 240 239 239 232 227 239 238 233 230 227 226 227 229 229 223 217 213 214 215 216 218 219 221 221 222 232 228 226 233 223 223 231 223 215 199 189 195 191 180 170 159 150 145 147 149 139 142 149 140 150 158 156 158 154 161 160 158 161 163 180 203
273 271 269 265 262 259 256 254 252 249 247 245 244 242 241 241 242 243 242 242 241 238 237 236 238 238 238 238 237 237 229 219 231 237 233 229 224 224 225 227 229 225 218 213 214 216 216 219 219 223 224 223 231 226 223 239 231 217 229 231 211 198 196 194 193 189 179 166 158 153 150 151 141 150 155 145 151 155 156 155 146 160 165 166 171 178 200 225
274 272 271 268 265 261 257 254 252 250 248 246 244 243 241 241 241 241 242 242 241 239 237 235 236 236 235 236 235 235 229 221 227 231 230 227 220 220 222 224 226 225 218 213 215 216 218 220 220 223 223 224 228 223 225 236 235 222 220 227 214 202 199 193 194 192 185 172 160 159 153 154 151 152 151 147 156 156 161 157 144 156 169 172 174 182 199 239
276 274 272 270 268 264 260 256 253 251 248 246 245 244 242 241 241 241 241 241 240 239 238 235 235 235 234 234 233 234 228 217 221 226 225 224 218 217 220 221 223 223 217 212 213 213 217 219 220 222 218 224 227 221 225 224 233 235 223 224 220 210 205 193 193 196 192 176 159 161 158 157 155 152 155 163 164 161 167 158 147 162 175 173 171 173 174 187
277 275 273 271 269 267 263 258 254 252 249 246 244 244 243 242 240 241 240 240 240 238 237 236 235 234 233 232 233 233 226 214 217 222 222 220 216 214 216 219 221 221 217 212 211 211 214 213 216 220 215 221 224 220 224 214 221 237 223 221 219 213 213 195 192 198 191 175 162 160 172 172 155 147 164 190 180 175 184 168 156 168 175 168 169 170 163 164
278 276 273 271 269 267 265 261 256 252 249 247 245 243 243 242 240 240 240 239 239 238 237 236 234 234 233 232 231 230 222 216 217 219 221 218 214 214 213 216 218 217 215 213 210 209 210 209 211 213 215 224 221 219 225 215 216 230 219 220 221 217 214 195 191 196 186 179 169 156 175 176 155 158 184 189 185 195 200 182 167 171 175 167 165 163 154 151
281 277 273 271 269 266 265 263 258 253 249 247 245 243 242 242 241 240 240 239 238 238 237 236 235 234 233 232 230 227 221 218 217 216 220 219 215 215 214 213 214 213 211 208 207 209 206 208 208 200 207 220 214 215 225 217 214 225 215 212 221 219 215 197 191 196 187 184 169 152 171 175 168 193 194 175 181 195 195 179 174 176 179 171 163 159 150 151
283 280 276 272 270 267 265 262 259 255 250 247 245 243 242 242 241 240 239 239 238 238 237 236 235 234 235 234 228 223 221 218 217 214 215 219 217 215 216 214 213 212 208 203 204 207 205 205 203 199 204 205 206 211 215 214 210 214 210 202 206 208 210 199 192 193 184 181 166 158 184 179 183 202 184 171 179 181 177 168 178 181 180 175 169 167 164 168
282 281 279 275 271 268 266 263 259 255 251 248 245 243 242 241 241 240 239 238 238 238 237 237 236 235 236 233 223 221 222 218 216 214 211 215 216 214 215 214 213 212 207 203 202 202 202 202 198 201 202 192 202 211 201 209 208 202 204 205 207 199 195 194 192 187 182 185 165 169 195 175 181 198 180 183 183 172 175 171 182 185 182 184 179 181 184 181
279 279 279 277 273 268 265 264 260 254 250 248 245 244 242 241 241 240 239 238 237 238 237 237 236 237 239 233 222 221 221 218 215 211 208 209 211 211 211 211 212 212 208 205 204 201 199 198 198 200 202 196 198 199 187 196 199 190 195 201 206 196 178 182 191 181 179 191 165 176 204 174 176 195 186 191 185 179 184 178 186 187 188 193 187 192 198 187
277 278 278 277 273 267 264 263 260 255 250 247 245 243 241 240 239 239 238 237 236 237 237 238 237 238 242 234 224 223 219 217 212 207 207 205 205 206 206 208 210 211 210 206 205 205 200 196 196 195 199 203 197 186 185 190 190 192 199 199 197 194 175 173 187 180 176 184 168 178 207 188 180 194 185 184 182 184 184 181 189 189 192 199 192 195 204 195
275 276 276 275 272 266 261 260 259 254 249 245 243 241 240 239 239 237 237 235 235 236 236 237 237 239 241 231 223 222 217 214 209 205 204 201 202 202 202 206 208 209 211 209 208 206 202 199 197 192 192 198 195 190 192 192 191 191 199 200 189 193 182 167 178 181 178 178 176 182 199 191 189 187 178 178 180 184 183 184 191 191 194 196 192 196 203 201
276 274 274 273 271 265 259 257 256 252 247 244 241 240 239 238 238 237 236 235 234 234 235 235 235 237 241 232 223 221 215 211 208 204 201 199 199 199 200 204 207 207 208 209 208 204 202 201 200 197 194 194 194 195 198 199 194 187 190 191 182 189 189 171 173 181 180 179 184 187 180 180 185 178 174 175 178 182 186 189 192 194 195 192 191 195 200 202
277 275 273 272 270 264 256 253 252 249 245 242 239 238 238 237 237 236 235 234 232 232 233 235 233 229 229 226 219 217 212 208 207 202 200 198 197 196 197 199 202 205 205 204 205 204 201 199 198 198 198 198 194 195 200 203 195 186 185 184 181 186 186 171 169 174 176 182 191 186 174 181 182 176 174 175 177 181 188 194 198 200 200 195 195 195 195 201
277 275 273 272 269 261 251 248 247 245 243 240 237 236 236 236 237 239 238 235 234 234 233 234 231 221 214 211 209 210 206 203 204 201 199 198 197 196 195 196 195 199 202 199 203 204 200 198 201 200 200 199 195 194 199 201 190 184 185 187 184 185 182 170 166 171 172 175 179 174 178 189 187 179 176 176 180 185 192 197 201 204 204 202 201 200 199 200
276 275 274 271 267 258 246 242 242 240 238 235 234 232 230 229 231 238 240 238 236 236 235 233 230 221 214 209 203 203 202 199 200 199 197 197 196 196 196 194 192 193 195 194 200 204 200 203 206 202 199 198 195 193 193 192 186 183 189 189 184 184 181 171 169 174 174 172 173 176 190 199 197 192 191 192 193 195 199 200 203 205 205 205 205 205 202 200
275 274 273 271 265 253 240 236 236 234 232 231 231 229 228 228 227 234 241 242 239 235 236 234 230 224 215 210 203 201 202 197 197 199 196 196 196 194 196 195 191 192 189 185 191 198 201 209 209 202 199 196 194 192 191 188 187 190 192 188 185 180 167 163 173 178 176 177 177 178 193 204 206 208 210 211 210 207 205 205 209 209 205 205 207 207 204 202
272 272 274 271 263 249 233 229 229 228 229 229 228 226 228 229 230 236 241 244 242 236 234 234 232 225 214 210 204 201 202 195 195 200 196 196 195 192 197 195 190 191 189 186 188 191 201 209 203 195 192 191 192 195 195 194 195 198 195 191 188 179 166 167 178 181 178 179 179 178 189 203 210 216 217 217 212 208 209 211 218 218 209 207 208 208 206 205
270 272 273 269 261 242 225 222 221 222 227 226 224 223 225 227 229 234 238 242 245 240 235 233 233 223 210 208 206 203 202 196 196 199 196 196 193 190 196 194 189 192 194 193 194 195 203 204 194 193 196 196 197 197 195 196 199 201 198 196 190 183 180 171 173 178 173 172 177 176 177 183 188 199 206 205 200 201 209 213 217 220 212 208 207 207 207 206
269 272 271 266 254 231 217 216 216 218 224 222 219 216 215 219 220 225 232 243 250 242 234 230 230 222 207 206 207 203 203 200 197 199 197 194 192 188 190 192 192 196 198 196 197 202 206 198 192 195 199 198 198 197 196 196 198 200 199 199 192 186 185 167 168 171 167 175 182 182 184 177 166 164 173 176 181 196 208 212 210 211 207 206 205 205 207 207
269 271 268 259 244 221 210 211 211 214 219 214 210 203 201 206 208 214 218 231 251 239 229 227 226 219 208 207 204 199 206 207 198 199 198 193 191 188 185 191 195 199 200 194 197 207 205 200 199 196 193 193 196 199 199 197 198 203 199 195 187 184 185 175 173 178 184 191 189 191 203 185 164 166 165 158 159 188 205 208 202 199 196 200 202 204 207 208
269 270 263 252 234 211 203 205 205 205 208 203 196 193 195 199 198 196 199 224 248 228 221 220 214 210 208 207 202 195 203 208 198 199 199 192 190 187 186 192 193 196 194 189 198 209 199 196 198 193 190 192 197 201 199 198 202 208 197 192 188 184 188 184 184 195 197 189 186 194 211 199 171 174 169 158 152 180 199 200 195 193 189 193 200 205 209 212
268 265 255 243 221 204 199 198 198 200 199 194 189 188 190 187 177 169 180 216 209 188 211 215 204 203 203 201 200 196 194 196 195 200 198 192 190 189 191 195 192 191 189 187 195 201 194 193 191 187 190 196 200 200 198 198 203 206 191 192 193 189 195 194 196 204 194 189 197 198 210 211 173 168 170 163 158 175 191 192 189 188 187 191 197 203 209 213
264 257 247 231 208 199 195 192 196 197 190 190 187 181 177 170 164 166 191 226 181 158 195 202 196 198 195 191 195 196 193 190 195 201 196 190 190 190 193 197 193 192 194 193 194 196 197 200 195 189 193 199 199 199 200 198 201 207 194 191 195 198 203 203 204 206 193 203 211 197 202 211 169 165 176 172 166 176 185 186 183 183 186 191 195 198 205 211
257 249 238 215 197 193 190 189 192 187 182 186 180 170 166 165 168 177 201 204 172 163 183 183 186 194 190 186 186 189 193 189 188 196 194 189 189 188 189 193 191 193 196 197 202 206 198 198 198 196 198 200 197 197 201 198 199 209 201 191 196 203 208 212 214 212 201 211 218 198 196 209 190 170 175 176 175 178 184 181 174 176 180 185 192 197 203 212
250 240 220 197 190 187 185 188 187 178 178 177 169 165 167 172 182 192 201 182 158 155 177 174 179 188 187 185 182 183 189 189 185 188 186 183 186 186 184 183 186 189 190 195 202 202 193 193 195 197 199 196 193 194 197 197 199 204 199 189 192 197 202 210 210 212 217 213 206 191 189 209 209 173 173 180 179 179 186 181 170 172 176 179 187 191 196 206
242 224 197 186 186 183 184 188 182 174 176 174 167 168 173 181 198 205 196 191 187 158 162 168 179 185 183 183 184 182 183 184 184 184 180 178 182 186 187 184 182 184 186 191 194 191 193 196 194 195 197 193 192 195 197 199 200 201 197 191 191 188 192 205 204 205 217 200 177 176 186 205 188 157 176 186 181 182 185 180 175 178 179 181 187 187 190 197
224 198 182 181 183 181 184 186 180 178 178 175 173 176 183 191 200 199 189 187 193 157 146 157 174 182 180 182 186 182 180 180 180 181 179 178 180 186 191 190 186 185 185 186 186 184 188 193 194 197 199 197 196 195 194 195 199 200 197 193 195 189 185 201 199 198 204 174 150 171 186 187 140 145 179 189 186 187 184 179 180 183 183 184 188 191 192 196
193 179 177 180 179 180 184 185 182 182 182 183 183 183 195 204 185 191 194 190 179 158 146 152 164 179 184 185 186 180 178 180 179 178 179 179 182 186 190 191 191 190 185 183 188 188 185 190 195 195 198 200 199 199 194 192 197 202 200 198 203 204 198 196 199 205 197 158 142 169 185 182 158 161 185 193 193 190 183 182 183 182 185 185 188 194 196 200
174 173 177 177 176 178 183 186 184 183 185 192 193 192 202 201 175 182 192 203 189 168 160 170 166 176 184 186 185 181 178 178 177 178 180 182 186 188 188 190 190 190 186 184 188 190 191 196 194 191 197 202 201 203 200 194 198 201 202 205 209 210 205 193 206 207 181 153 140 159 163 151 156 169 190 196 197 192 184 185 185 184 186 186 189 196 201 206
168 171 175 172 173 177 182 186 185 185 189 194 199 205 209 198 162 160 179 213 207 184 173 203 184 179 179 181 182 180 180 176 174 179 183 185 189 189 188 189 188 189 189 185 182 185 192 193 183 185 193 198 199 200 197 196 195 195 200 206 208 210 202 185 172 144 161 167 158 153 142 138 145 167 199 203 200 197 191 186 188 189 189 190 194 198 203 211
166 169 171 169 173 177 180 183 184 188 193 198 204 209 212 208 198 164 155 236 215 203 219 203 186 180 178 177 179 180 180 175 175 180 183 187 192 191 190 190 189 190 191 189 185 184 188 182 176 185 190 192 194 193 196 201 195 191 200 202 198 203 200 193 186 153 174 192 175 170 166 161 160 169 197 208 206 201 198 192 193 196 196 197 198 201 208 214
166 172 174 172 176 179 178 178 184 191 194 202 211 213 216 220 223 239 261 303 232 215 234 202 180 183 183 177 175 179 181 178 178 181 181 185 191 191 189 188 190 192 193 192 192 189 189 182 179 189 192 189 188 188 195 201 199 197 201 197 193 197 199 199 198 184 193 195 166 179 177 175 179 176 191 209 212 205 203 200 198 198 200 201 199 204 213 217
171 177 181 180 179 178 175 174 180 190 195 205 213 215 222 223 223 239 247 272 264 220 226 208 164 180 187 179 174 176 182 183 179 181 182 182 187 189 188 186 187 191 192 192 191 190 195 195 178 183 189 187 186 190 195 196 197 198 198 195 198 205 201 197 200 199 201 196 168 179 185 187 185 178 192 207 213 212 211 209 208 204 205 208 205 211 218 221
172 179 183 182 176 170 171 177 185 192 198 205 209 212 220 219 221 236 236 250 275 246 224 203 156 165 184 179 176 175 181 184 181 182 183 179 180 187 188 189 188 188 189 191 193 190 196 207 184 173 183 187 188 195 197 194 194 194 196 197 197 200 196 190 196 207 210 207 180 178 188 180 172 177 192 200 208 213 212 215 217 214 215 216 214 219 224 226
173 182 185 177 168 165 172 187 195 195 197 203 208 212 216 209 207 235 243 245 265 262 229 202 178 169 161 170 179 179 180 185 185 185 184 180 179 183 188 190 188 187 187 190 198 193 193 206 189 171 182 189 190 195 195 192 192 193 198 200 195 193 190 184 187 198 211 213 191 189 183 161 172 184 187 197 211 211 209 219 222 220 222 223 222 226 230 234
168 181 181 174 171 173 181 194 197 194 197 206 212 213 216 215 212 237 249 244 256 261 230 200 175 167 163 166 178 182 182 186 187 187 188 186 184 185 190 190 184 184 185 186 194 194 190 198 190 177 184 189 190 194 194 193 192 193 200 200 196 194 193 196 196 188 200 213 196 200 195 164 185 192 188 197 209 207 211 221 220 215 219 224 225 229 232 239
165 175 174 173 180 182 181 187 195 196 201 211 213 210 214 220 223 238 246 240 245 246 220 197 173 162 166 164 169 182 184 183 186 190 188 185 187 192 194 190 183 183 185 185 189 190 188 190 183 174 178 188 196 199 199 201 197 195 198 195 193 195 197 206 204 184 194 203 194 204 199 171 193 196 194 200 201 202 213 216 210 212 223 229 228 226 229 235
164 167 167 170 178 178 174 178 195 201 205 208 207 208 216 224 231 241 242 232 229 226 210 200 180 159 164 164 164 181 183 175 177 187 183 181 190 196 196 189 182 180 186 189 187 184 182 184 181 175 173 182 195 196 195 199 198 196 197 193 194 196 199 208 203 186 197 200 199 210 187 168 193 195 196 201 201 203 212 216 216 221 233 237 223 216 225 230
154 159 163 168 173 175 174 178 190 198 203 204 202 208 220 232 236 235 232 225 221 213 201 197 186 170 168 168 172 187 189 180 176 177 175 181 191 194 192 185 179 180 188 191 189 184 182 183 185 189 188 180 184 190 185 184 187 192 196 196 197 198 200 204 200 197 202 193 200 215 168 161 186 192 194 199 202 204 208 216 222 224 234 240 226 212 223 230
152 158 164 167 172 178 183 183 185 192 199 198 203 218 222 227 229 222 220 218 216 218 208 196 188 178 170 169 175 183 186 183 179 175 173 179 187 189 188 184 183 187 189 189 190 189 187 185 187 198 200 185 169 174 176 172 175 187 194 194 196 200 203 204 202 206 200 184 192 214 196 173 183 190 194 196 200 207 208 208 212 216 232 246 238 219 225 239
154 161 166 164 169 182 185 187 190 191 195 199 214 223 211 200 201 206 210 210 209 220 215 198 189 179 172 172 175 178 179 179 178 177 173 174 184 187 185 185 187 190 190 192 194 192 190 190 190 193 194 185 164 162 172 174 173 180 187 188 192 199 202 201 204 208 195 184 186 202 210 198 186 189 194 196 200 207 208 207 212 218 233 250 247 227 221 253
160 165 166 160 166 183 183 187 191 188 200 210 209 203 190 177 197 217 227 233 219 203 197 194 187 174 168 172 176 176 180 185 186 184 182 183 186 183 179 183 187 188 191 196 194 191 192 191 185 178 175 175 174 172 175 181 181 179 182 183 188 196 196 194 201 201 191 195 198 197 202 198 187 191 195 198 202 204 204 210 220 225 231 244 250 234 219 261
160 163 166 161 163 179 177 177 187 199 212 207 194 182 160 141 280 258 247 246 221 185 180 185 180 171 167 173 177 174 178 188 191 189 188 188 184 178 177 180 184 186 190 195 192 192 192 181 167 166 162 160 168 171 173 181 182 177 176 177 182 191 193 194 200 200 193 192 190 197 200 193 191 198 197 196 198 199 202 209 215 221 227 239 252 251 241 257
161 162 165 164 162 164 166 177 194 199 197 189 175 131 93 81 31 335 254 230 191 168 169 170 169 167 165 172 178 176 175 186 191 187 187 187 179 176 177 179 182 184 186 189 188 191 194 180 160 160 152 139 148 162 166 178 182 175 169 169 174 181 186 189 192 192 192 190 183 193 200 197 197 200 196 193 193 195 199 201 202 210 223 235 249 256 250 254
160 162 158 150 150 155 164 186 186 177 170 159 125 89 85 74 45 17 302 210 154 152 161 166 165 165 170 179 186 183 177 184 193 192 192 188 179 176 177 179 182 183 183 186 185 188 195 186 162 155 144 122 128 149 154 168 178 174 165 163 169 177 180 181 184 185 188 193 190 188 193 197 198 193 189 188 188 190 193 194 198 209 216 221 233 239 232 243
160 164 153 144 146 156 173 176 169 156 126 97 89 70 47 42 73 86 26 82 123 133 145 163 168 169 173 179 182 175 170 183 191 184 180 177 172 175 178 178 181 182 182 186 185 186 194 186 166 156 144 132 141 145 143 152 164 161 156 157 160 169 176 176 176 176 174 176 187 191 195 199 196 188 184 184 185 188 188 187 195 206 207 210 222 220 212 241
Height
3080 3080 3081 3081 3082 3082 3083 3083 3084 3085 3086 3087 3088 3090 3091 3092 3093 3094 3095 3096 3097 3098 3099 3101 3102 3103 3105 3107 3109 3110 3112 3114 3116 3118 3119 3119 3119 3119 3121 3121 3123 3124 3125 3127 3128 3130 3131 3132 3134 3135 3136 3137 3138 3138 3139 3140 3142 3144 3146 3148 3149 3150 3151 3150 3152 3151 3151 3153 3153 3153 3153 3154 3156 3157 3158 3159 3161 3162 3162 3163 3164 3165 3165 3166 3166 3166 3167 3167
3077 3077 3077 3078 3078 3079 3079 3080 3081 3082 3083 3084 3085 3086 3087 3089 3090 3091 3092 3093 3094 3095 3097 3098 3099 3101 3102 3105 3106 3108 3110 3111 3114 3116 3116 3117 3117 3118 3119 3119 3121 3123 3124 3125 3127 3128 3130 3131 3133 3134 3135 3136 3137 3137 3138 3139 3141 3143 3146 3147 3148 3149 3149 3148 3149 3149 3150 3151 3151 3152 3153 3153 3155 3156 3157 3159 3161 3161 3162 3163 3164 3164 3165 3165 3166 3166 3167 3167
3074 3074 3074 3074 3075 3075 3076 3077 3078 3079 3080 3081 3082 3083 3084 3086 3087 3088 3089 3090 3091 3092 3094 3096 3097 3098 3100 3102 3103 3105 3107 3109 3112 3113 3113 3114 3115 3116 3117 3118 3120 3121 3122 3124 3125 3127 3128 3130 3131 3133 3134 3135 3136 3136 3138 3138 3140 3142 3144 3146 3147 3147 3147 3147 3148 3148 3149 3149 3150 3151 3152 3153 3154 3155 3156 3159 3160 3161 3163 3164 3164 3164 3165 3165 3166 3166 3167 3167
3070 3070 3071 3071 3071 3072 3072 3073 3075 3076 3077 3078 3079 3080 3081 3083 3084 3084 3085 3087 3088 3089 3091 3093 3094 3095 3097 3099 3101 3103 3105 3107 3109 3110 3110 3112 3113 3114 3115 3116 3117 3119 3121 3122 3124 3126 3127 3129 3130 3132 3133 3134 3134 3135 3137 3138 3140 3141 3142 3145 3146 3145 3146 3147 3147 3147 3148 3148 3149 3150 3152 3154 3154 3155 3156 3158 3161 3162 3163 3163 3164 3165 3165 3165 3166 3166 3166 3167
3067 3067 3067 3068 3068 3068 3069 3070 3071 3072 3073 3074 3076 3077 3079 3080 3081 3081 3082 3084 3085 3086 3088 3090 3091 3093 3094 3096 3098 3100 3103 3106 3106 3106 3108 3109 3110 3112 3113 3114 3115 3117 3119 3121 3123 3124 3126 3127 3129 3131 3132 3134 3133 3135 3136 3137 3138 3139 3140 3142 3143 3144 3146 3147 3146 3147 3148 3148 3149 3150 3152 3153 3154 3155 3155 3157 3161 3162 3162 3162 3162 3164 3164 3165 3166 3166 3166 3166
3064 3064 3064 3064 3064 3065 3066 3066 3067 3068 3069 3071 3072 3073 3075 3076 3078 3079 3080 3081 3082 3083 3085 3087 3088 3090 3092 3094 3096 3097 3101 3104 3102 3103 3105 3106 3108 3110 3111 3112 3114 3115 3117 3119 3121 3123 3124 3126 3128 3129 3131 3133 3133 3134 3136 3135 3137 3139 3140 3140 3141 3143 3145 3145 3146 3147 3147 3148 3149 3150 3151 3152 3153 3156 3156 3156 3159 3160 3160 3161 3161 3163 3164 3165 3165 3166 3166 3166
3061 3060 3061 3061 3061 3061 3062 3063 3063 3065 3066 3067 3068 3070 3071 3073 3074 3076 3077 3078 3079 3081 3082 3084 3085 3087 3089 3090 3093 3094 3097 3100 3100 3101 3102 3103 3105 3107 3109 3111 3112 3114 3116 3118 3119 3121 3123 3124 3127 3128 3130 3132 3132 3134 3135 3135 3136 3138 3139 3139 3140 3142 3143 3144 3145 3146 3147 3148 3149 3150 3151 3152 3153 3155 3156 3156 3157 3158 3159 3160 3161 3162 3163 3164 3165 3165 3165 3166
3057 3057 3057 3057 3057 3058 3058 3059 3060 3061 3062 3063 3065 3067 3068 3070 3071 3072 3074 3075 3076 3078 3079 3081 3082 3084 3085 3087 3090 3091 3094 3098 3098 3099 3100 3101 3103 3104 3106 3108 3110 3112 3114 3116 3118 3120 3122 3123 3126 3127 3129 3131 3131 3133 3133 3134 3135 3136 3138 3138 3139 3141 3142 3143 3144 3146 3147 3148 3149 3150 3151 3152 3153 3154 3156 3156 3157 3158 3159 3160 3161 3162 3163 3164 3164 3165 3165 3165
3054 3054 3054 3054 3054 3054 3055 3055 3056 3057 3058 3060 3062 3063 3065 3067 3068 3069 3071 3072 3073 3075 3077 3078 3080 3081 3082 3084 3086 3088 3092 3096 3095 3096 3099 3100 3101 3102 3104 3106 3108 3110 3113 3115 3116 3118 3120 3122 3124 3126 3128 3130 3130 3131 3131 3133 3135 3134 3136 3138 3139 3140 3141 3142 3144 3146 3147 3148 3149 3150 3151 3152 3153 3154 3156 3156 3157 3157 3158 3160 3161 3162 3163 3164 3164 3164 3165 3165
3051 3051 3051 3050 3050 3050 3051 3052 3052 3053 3055 3056 3058 3060 3062 3063 3065 3066 3067 3069 3070 3072 3074 3075 3077 3078 3079 3081 3083 3085 3090 3093 3092 3094 3096 3098 3099 3101 3102 3104 3106 3109 3111 3113 3115 3117 3119 3121 3123 3124 3126 3127 3128 3129 3130 3132 3134 3133 3135 3137 3137 3139 3140 3141 3143 3145 3146 3148 3149 3150 3152 3152 3153 3155 3156 3156 3156 3157 3158 3159 3161 3162 3163 3163 3164 3164 3165 3165
3048 3047 3047 3047 3047 3047 3047 3048 3049 3050 3051 3052 3054 3056 3058 3060 3061 3063 3064 3065 3067 3069 3070 3072 3074 3075 3076 3078 3079 3083 3088 3090 3090 3092 3093 3096 3098 3099 3100 3102 3104 3107 3110 3112 3114 3116 3117 3119 3120 3122 3125 3125 3126 3128 3128 3130 3132 3132 3134 3135 3136 3137 3138 3140 3142 3144 3146 3148 3148 3149 3152 3152 3153 3154 3155 3154 3155 3156 3158 3159 3161 3162 3163 3164 3164 3164 3165 3165
3044 3044 3044 3043 3043 3043 3044 3044 3045 3046 3047 3049 3051 3053 3054 3056 3058 3059 3061 3062 3064 3066 3067 3069 3070 3072 3073 3074 3076 3082 3086 3086 3087 3089 3091 3094 3096 3097 3099 3101 3103 3105 3108 3110 3113 3114 3115 3116 3118 3121 3122 3123 3125 3127 3127 3128 3130 3131 3133 3135 3136 3136 3138 3139 3142 3144 3145 3147 3147 3149 3151 3152 3153 3153 3153 3153 3154 3156 3157 3159 3160 3162 3163 3164 3164 3165 3165 3164
3040 3040 3040 3040 3040 3040 3041 3041 3042 3043 3044 3045 3047 3049 3050 3052 3054 3056 3058 3059 3061 3063 3064 3065 3067 3069 3069 3070 3076 3081 3081 3083 3085 3087 3089 3092 3094 3096 3097 3099 3101 3103 3105 3108 3109 3111 3112 3114 3116 3119 3119 3122 3125 3125 3125 3127 3129 3131 3132 3135 3136 3136 3138 3139 3140 3142 3144 3145 3146 3148 3150 3151 3151 3151 3152 3153 3154 3155 3156 3158 3160 3161 3162 3163 3164 3164 3163 3163
3037 3036 3036 3037 3037 3037 3037 3038 3038 3039 3041 3042 3043 3045 3047 3049 3051 3052 3055 3057 3058 3059 3061 3062 3064 3066 3065 3069 3076 3077 3078 3081 3083 3085 3088 3090 3092 3094 3095 3097 3099 3101 3103 3105 3106 3108 3110 3112 3114 3116 3117 3121 3122 3122 3125 3127 3128 3131 3132 3134 3135 3135 3136 3137 3139 3141 3143 3145 3145 3147 3148 3148 3148 3150 3152 3152 3153 3155 3156 3157 3159 3160 3161 3162 3163 3162 3160 3160
3034 3033 3033 3033 3034 3034 3034 3034 3035 3036 3038 3039 3040 3042 3044 3046 3047 3049 3052 3054 3055 3056 3058 3059 3061 3062 3063 3068 3073 3074 3076 3079 3081 3083 3085 3087 3089 3091 3093 3095 3097 3099 3100 3102 3103 3105 3107 3109 3112 3114 3116 3118 3119 3122 3126 3126 3127 3130 3131 3132 3133 3133 3134 3136 3138 3140 3142 3144 3145 3147 3147 3146 3147 3149 3150 3151 3152 3154 3155 3156 3157 3158 3159 3161 3162 3160 3158 3159
3031 3031 3031 3030 3030 3031 3031 3031 3032 3033 3035 3036 3037 3039 3041 3042 3044 3046 3048 3050 3051 3053 3055 3056 3058 3060 3062 3066 3070 3071 3074 3076 3079 3081 3082 3084 3087 3088 3091 3093 3095 3097 3098 3100 3101 3103 3106 3108 3110 3113 3116 3117 3119 3123 3125 3126 3127 3128 3129 3130 3131 3132 3132 3134 3136 3138 3141 3142 3144 3146 3146 3145 3146 3148 3149 3150 3151 3152 3153 3155 3156 3157 3158 3160 3161 3159 3158 3159
3028 3028 3028 3027 3027 3028 3028 3029 3030 3030 3032 3033 3034 3036 3037 3039 3041 3043 3045 3046 3048 3050 3052 3053 3056 3058 3060 3064 3067 3069 3071 3073 3076 3077 3079 3082 3084 3086 3088 3090 3093 3095 3097 3098 3100 3103 3105 3107 3109 3111 3114 3116 3119 3121 3122 3123 3123 3125 3127 3128 3129 3130 3131 3132 3134 3137 3139 3141 3143 3145 3145 3144 3145 3146 3148 3149 3150 3151 3152 3153 3154 3155 3157 3158 3159 3158 3158 3158
3025 3025 3025 3024 3025 3025 3025 3026 3027 3028 3029 3030 3032 3033 3034 3036 3038 3040 3041 3043 3045 3047 3048 3050 3053 3056 3059 3062 3065 3066 3068 3071 3073 3075 3077 3079 3082 3084 3087 3089 3091 3093 3095 3097 3099 3102 3104 3106 3108 3111 3113 3114 3116 3118 3119 3119 3120 3123 3125 3126 3128 3129 3130 3131 3132 3135 3137 3140 3142 3144 3144 3143 3144 3145 3146 3148 3149 3150 3151 3152 3153 3154 3155 3156 3157 3157 3157 3157
3022 3022 3022 3021 3022 3022 3023 3024 3025 3025 3027 3028 3029 3030 3031 3033 3035 3036 3038 3039 3041 3043 3046 3048 3051 3055 3058 3059 3061 3063 3065 3068 3071 3073 3075 3077 3080 3082 3084 3087 3090 3092 3094 3096 3098 3099 3102 3104 3106 3108 3110 3111 3113 3115 3117 3118 3120 3121 3123 3125 3127 3128 3130 3130 3131 3132 3136 3139 3141 3142 3143 3143 3143 3144 3145 3147 3148 3149 3150 3151 3152 3153 3154 3155 3155 3155 3156 3157
3019 3019 3019 3019 3019 3019 3020 3021 3022 3023 3024 3025 3026 3028 3029 3031 3033 3034 3034 3036 3038 3041 3044 3046 3049 3053 3055 3056 3058 3061 3063 3066 3068 3070 3072 3075 3078 3080 3083 3085 3088 3090 3092 3094 3096 3097 3100 3102 3102 3104 3107 3109 3112 3114 3117 3118 3119 3121 3123 3124 3126 3127 3129 3130 3130 3131 3134 3138 3139 3140 3141 3142 3143 3144 3145 3146 3147 3148 3148 3149 3150 3151 3152 3153 3154 3154 3155 3156
3016 3016 3016 3016 3016 3017 3018 3019 3020 3021 3022 3023 3024 3025 3027 3029 3031 3031 3031 3034 3036 3039 3041 3043 3046 3049 3051 3054 3056 3059 3061 3062 3065 3068 3070 3073 3075 3078 3080 3082 3085 3088 3091 3094 3095 3096 3099 3100 3100 3102 3106 3109 3111 3114 3116 3117 3119 3121 3122 3123 3124 3125 3127 3129 3130 3131 3133 3136 3137 3138 3139 3141 3142 3143 3144 3145 3145 3146 3146 3147 3148 3149 3150 3151 3152 3153 3153 3154
3013 3013 3013 3013 3013 3014 3015 3016 3018 3019 3020 3020 3021 3023 3025 3026 3028 3029 3030 3032 3034 3036 3038 3040 3042 3045 3049 3052 3055 3056 3058 3060 3063 3065 3067 3070 3072 3076 3078 3080 3084 3086 3089 3092 3093 3094 3096 3097 3099 3102 3106 3109 3110 3112 3114 3116 3118 3120 3121 3122 3123 3123 3125 3127 3129 3130 3132 3135 3136 3137 3139 3140 3141 3142 3143 3143 3144 3144 3145 3146 3146 3147 3148 3149 3150 3151 3152 3153
3010 3011 3011 3011 3011 3012 3013 3014 3016 3017 3018 3018 3019 3021 3022 3024 3026 3028 3029 3030 3031 3033 3034 3036 3039 3043 3048 3050 3052 3054 3055 3058 3061 3062 3064 3067 3070 3074 3076 3078 3083 3086 3087 3088 3090 3092 3093 3095 3098 3101 3104 3106 3108 3110 3113 3116 3118 3119 3120 3120 3121 3122 3123 3125 3128 3129 3131 3134 3135 3137 3138 3139 3140 3141 3141 3142 3142 3143 3143 3144 3145 3145 3146 3147 3148 3149 3150 3152
3007 3008 3008 3008 3009 3010 3011 3012 3014 3015 3016 3016 3018 3019 3021 3023 3025 3026 3027 3028 3029 3029 3031 3034 3036 3040 3044 3047 3048 3051 3053 3056 3058 3059 3061 3064 3068 3072 3074 3077 3082 3084 3085 3086 3089 3091 3092 3094 3097 3099 3101 3104 3107 3109 3112 3114 3116 3117 3118 3119 3120 3121 3123 3124 3125 3128 3131 3133 3134 3136 3138 3139 3140 3140 3140 3140 3141 3141 3142 3143 3143 3143 3143 3144 3146 3147 3149 3150
3005 3005 3005 3006 3007 3007 3009 3011 3012 3013 3014 3015 3016 3018 3020 3022 3023 3025 3026 3028 3027 3027 3029 3031 3032 3036 3040 3042 3044 3047 3051 3052 3054 3057 3059 3062 3066 3070 3073 3077 3080 3082 3083 3086 3088 3090 3092 3094 3095 3097 3100 3103 3105 3107 3109 3112 3114 3116 3117 3118 3119 3121 3123 3123 3124 3127 3130 3132 3133 3134 3135 3137 3139 3139 3139 3139 3139 3139 3140 3141 3142 3142 3142 3142 3144 3146 3148 3149
3002 3002 3003 3003 3004 3005 3007 3009 3010 3012 3012 3014 3015 3017 3019 3020 3022 3023 3025 3027 3026 3024 3026 3028 3030 3034 3036 3037 3041 3046 3049 3049 3052 3055 3056 3060 3064 3068 3073 3075 3077 3080 3083 3085 3088 3089 3091 3091 3093 3096 3099 3101 3104 3106 3108 3110 3112 3114 3115 3117 3119 3121 3122 3123 3124 3126 3127 3128 3131 3131 3130 3133 3138 3138 3138 3138 3138 3138 3138 3140 3140 3140 3141 3141 3143 3145 3146 3148
2999 2999 3000 3001 3002 3004 3006 3007 3009 3010 3011 3012 3014 3015 3017 3019 3021 3023 3024 3026 3024 3021 3023 3025 3028 3030 3032 3035 3040 3044 3047 3047 3050 3053 3054 3058 3062 3067 3071 3072 3075 3079 3081 3084 3086 3086 3087 3089 3091 3094 3097 3100 3102 3103 3106 3109 3111 3112 3113 3116 3118 3120 3122 3122 3124 3125 3125 3126 3129 3130 3129 3131 3135 3137 3137 3138 3138 3137 3137 3138 3139 3139 3140 3141 3142 3144 3145 3146
2996 2996 2997 2998 3000 3002 3004 3005 3007 3008 3010 3011 3012 3014 3016 3018 3020 3022 3024 3024 3020 3017 3019 3021 3025 3027 3030 3034 3037 3041 3044 3045 3048 3050 3053 3058 3061 3065 3068 3071 3073 3076 3078 3080 3083 3083 3085 3087 3089 3093 3095 3097 3099 3102 3105 3107 3110 3111 3112 3115 3118 3120 3121 3122 3124 3123 3124 3126 3126 3128 3129 3128 3131 3134 3136 3137 3137 3135 3135 3137 3138 3138 3139 3140 3141 3143 3144 3145
2993 2993 2994 2996 2998 3000 3002 3004 3005 3007 3008 3009 3011 3013 3015 3017 3019 3021 3022 3021 3016 3015 3016 3018 3022 3025 3027 3031 3034 3038 3043 3045 3048 3049 3052 3056 3059 3063 3067 3070 3073 3075 3076 3079 3082 3083 3083 3086 3089 3091 3094 3095 3098 3102 3103 3106 3109 3110 3111 3115 3117 3118 3120 3121 3122 3122 3123 3124 3121 3123 3126 3125 3128 3133 3134 3136 3136 3134 3134 3135 3136 3137 3138 3139 3140 3141 3143 3144
2990 2991 2992 2994 2996 2998 3001 3002 3004 3005 3007 3008 3010 3012 3014 3016 3018 3019 3020 3017 3014 3014 3015 3017 3020 3022 3025 3028 3031 3036 3041 3044 3046 3047 3050 3054 3057 3061 3066 3069 3073 3075 3076 3079 3081 3082 3083 3085 3088 3090 3092 3095 3098 3100 3101 3104 3107 3108 3111 3114 3116 3117 3119 3120 3121 3120 3121 3120 3118 3120 3123 3123 3126 3132 3133 3133 3134 3132 3132 3134 3134 3135 3136 3137 3139 3140 3141 3142
2987 2988 2990 2992 2994 2996 2999 3001 3003 3004 3006 3007 3010 3012 3013 3015 3016 3016 3015 3013 3012 3014 3015 3016 3019 3020 3023 3026 3029 3034 3039 3042 3043 3044 3048 3052 3055 3059 3063 3066 3070 3073 3075 3077 3079 3080 3082 3083 3086 3088 3091 3094 3097 3098 3100 3103 3106 3107 3110 3113 3114 3116 3118 3119 3120 3120 3118 3116 3115 3118 3122 3122 3124 3129 3130 3130 3130 3130 3131 3132 3133 3134 3135 3136 3138 3139 3140 3141
2984 2986 2988 2990 2992 2995 2997 2999 3001 3003 3005 3007 3009 3011 3012 3014 3014 3012 3011 3010 3012 3013 3014 3016 3018 3019 3022 3026 3028 3031 3036 3040 3041 3043 3045 3049 3053 3056 3059 3061 3064 3067 3070 3072 3075 3078 3080 3081 3084 3086 3088 3091 3094 3096 3098 3101 3103 3106 3108 3109 3110 3111 3114 3115 3113 3114 3114 3113 3114 3117 3120 3121 3123 3126 3127 3127 3127 3128 3129 3130 3132 3133 3134 3135 3137 3138 3139 3140
2982 2984 2986 2989 2991 2993 2996 2998 3000 3002 3004 3006 3008 3010 3011 3011 3011 3010 3009 3010 3011 3011 3012 3014 3016 3019 3022 3025 3027 3030 3034 3037 3039 3042 3045 3048 3052 3055 3057 3060 3061 3063 3066 3069 3072 3076 3078 3080 3082 3084 3085 3088 3091 3093 3095 3097 3100 3103 3104 3105 3104 3103 3107 3109 3107 3108 3109 3111 3114 3117 3118 3120 3123 3125 3125 3125 3126 3127 3128 3130 3131 3132 3133 3135 3136 3137 3138 3139
2980 2982 2985 2987 2990 2992 2994 2997 2999 3001 3003 3005 3007 3009 3010 3009 3007 3007 3009 3010 3010 3010 3012 3013 3015 3018 3021 3023 3025 3028 3032 3035 3037 3040 3044 3047 3050 3052 3055 3058 3060 3063 3065 3068 3070 3072 3073 3075 3077 3080 3082 3084 3088 3090 3092 3096 3099 3100 3101 3103 3102 3099 3102 3104 3103 3103 3105 3109 3114 3117 3117 3119 3122 3123 3123 3125 3126 3127 3128 3129 3130 3132 3133 3134 3135 3136 3137 3138
2979 2982 2984 2987 2989 2991 2993 2996 2998 3000 3002 3004 3006 3008 3008 3006 3005 3007 3009 3009 3010 3010 3011 3013 3014 3017 3019 3022 3024 3027 3030 3033 3036 3039 3042 3044 3046 3048 3051 3055 3057 3061 3063 3065 3067 3069 3070 3071 3073 3077 3081 3082 3085 3089 3092 3095 3097 3098 3100 3101 3100 3099 3101 3103 3102 3102 3104 3108 3113 3116 3118 3119 3120 3122 3123 3124 3125 3126 3127 3128 3129 3131 3132 3133 3134 3135 3136 3137
2979 2981 2984 2986 2988 2990 2993 2995 2998 3000 3002 3004 3006 3006 3006 3005 3006 3007 3008 3008 3009 3010 3011 3012 3013 3015 3018 3020 3023 3026 3029 3031 3034 3037 3040 3042 3045 3047 3050 3052 3055 3058 3060 3062 3064 3066 3069 3070 3072 3075 3079 3081 3084 3087 3090 3092 3093 3096 3097 3097 3097 3098 3100 3101 3102 3104 3105 3107 3112 3116 3118 3119 3120 3122 3123 3123 3124 3125 3126 3127 3129 3130 3131 3132 3133 3134 3134 3135
2979 2982 2984 2986 2988 2990 2992 2995 2998 3000 3001 3003 3004 3004 3005 3006 3006 3007 3007 3007 3008 3009 3010 3011 3012 3013 3015 3017 3020 3023 3026 3029 3032 3034 3037 3040 3042 3045 3048 3051 3054 3057 3059 3061 3063 3065 3067 3069 3071 3074 3077 3080 3083 3086 3088 3089 3091 3093 3093 3094 3097 3098 3099 3100 3101 3104 3104 3104 3110 3114 3115 3116 3118 3119 3121 3122 3122 3124 3125 3127 3128 3129 3130 3131 3132 3132 3133 3134
2980 2982 2984 2986 2988 2990 2993 2995 2998 2999 3001 3003 3003 3003 3005 3006 3007 3007 3007 3007 3008 3009 3010 3010 3011 3012 3013 3015 3018 3021 3024 3026 3029 3032 3034 3037 3039 3042 3046 3049 3052 3055 3059 3061 3063 3064 3066 3067 3070 3074 3076 3078 3081 3084 3086 3087 3088 3090 3091 3094 3096 3097 3098 3098 3098 3100 3101 3102 3108 3112 3112 3114 3115 3116 3118 3119 3120 3122 3124 3125 3126 3127 3128 3129 3130 3131 3132 3133
2980 2982 2984 2986 2988 2990 2993 2995 2997 2999 3001 3001 3002 3004 3004 3005 3007 3007 3006 3007 3007 3008 3009 3010 3010 3012 3013 3014 3016 3020 3023 3025 3027 3030 3032 3035 3037 3040 3045 3048 3050 3054 3058 3060 3062 3063 3064 3065 3067 3072 3075 3077 3079 3081 3082 3083 3085 3088 3091 3092 3093 3094 3095 3095 3096 3097 3097 3099 3105 3110 3111 3112 3114 3115 3117 3118 3119 3121 3122 3124 3125 3125 3126 3127 3128 3129 3130 3131
2980 2982 2984 2986 2988 2990 2993 2995 2996 2998 2999 3000 3002 3004 3004 3005 3006 3006 3006 3007 3007 3007 3009 3009 3010 3011 3012 3013 3015 3018 3021 3024 3027 3029 3031 3034 3036 3039 3043 3046 3049 3052 3056 3059 3061 3062 3063 3064 3065 3069 3073 3074 3076 3077 3078 3080 3082 3084 3087 3088 3090 3091 3092 3093 3095 3095 3094 3094 3100 3106 3108 3110 3113 3115 3117 3117 3118 3119 3121 3122 3123 3124 3125 3125 3127 3128 3129 3130
2980 2982 2983 2986 2988 2990 2992 2994 2995 2997 2998 3000 3002 3003 3004 3005 3006 3006 3006 3006 3006 3007 3007 3008 3009 3010 3011 3012 3014 3017 3020 3023 3026 3027 3030 3033 3035 3038 3041 3044 3048 3051 3054 3057 3059 3060 3062 3063 3063 3066 3069 3071 3072 3073 3075 3078 3079 3082 3083 3084 3086 3088 3089 3090 3092 3093 3093 3093 3095 3100 3103 3107 3111 3113 3115 3115 3116 3117 3119 3120 3121 3122 3123 3124 3125 3126 3127 3128
2980 2982 2984 2986 2988 2990 2993 2994 2996 2997 2998 2999 3001 3002 3003 3004 3005 3006 3005 3005 3006 3006 3007 3008 3009 3009 3010 3012 3014 3017 3019 3021 3024 3026 3028 3031 3035 3037 3039 3042 3047 3050 3053 3055 3058 3059 3060 3062 3063 3064 3067 3068 3069 3071 3074 3075 3078 3081 3082 3083 3085 3087 3088 3087 3087 3091 3094 3094 3095 3097 3100 3106 3109 3110 3111 3112 3114 3116 3117 3118 3120 3121 3122 3123 3124 3125 3126 3127
2981 2982 2984 2986 2988 2990 2993 2995 2996 2997 2997 2999 3000 3001 3003 3003 3004 3005 3004 3005 3005 3005 3006 3007 3008 3009 3011 3012 3013 3016 3019 3021 3024 3026 3028 3031 3034 3036 3038 3041 3045 3049 3051 3054 3056 3058 3059 3060 3061 3063 3066 3067 3068 3071 3073 3075 3077 3079 3080 3082 3083 3084 3086 3086 3086 3089 3092 3093 3095 3096 3099 3104 3108 3108 3109 3111 3113 3114 3115 3117 3119 3120 3121 3122 3123 3125 3125 3126
2982 2983 2985 2986 2988 2990 2992 2995 2996 2997 2997 2998 2999 3001 3002 3003 3003 3003 3004 3004 3005 3005 3005 3007 3008 3009 3010 3012 3014 3016 3019 3021 3023 3025 3028 3031 3032 3034 3037 3040 3044 3047 3050 3052 3054 3056 3058 3059 3060 3062 3064 3067 3068 3070 3071 3073 3075 3077 3078 3079 3081 3082 3084 3086 3087 3089 3090 3092 3094 3094 3096 3101 3104 3106 3108 3110 3111 3113 3114 3116 3118 3119 3120 3121 3122 3124 3124 3125
2983 2984 2986 2987 2989 2991 2992 2994 2996 2997 2997 2998 2999 3001 3002 3002 3002 3002 3003 3003 3004 3004 3005 3006 3007 3008 3009 3011 3013 3015 3018 3020 3022 3024 3028 3030 3031 3034 3037 3039 3043 3047 3048 3050 3053 3055 3057 3058 3058 3058 3058 3060 3063 3065 3066 3069 3072 3074 3076 3078 3080 3082 3084 3085 3087 3089 3089 3091 3093 3093 3094 3098 3101 3103 3106 3108 3110 3112 3113 3115 3116 3118 3119 3119 3121 3122 3123 3123
2984 2985 2987 2989 2991 2992 2993 2994 2995 2996 2997 2998 2999 3000 3000 3000 3001 3001 3002 3002 3003 3004 3004 3004 3005 3006 3008 3010 3011 3014 3018 3020 3021 3024 3027 3029 3030 3033 3036 3039 3042 3045 3046 3049 3052 3054 3056 3056 3056 3056 3057 3058 3060 3062 3064 3067 3070 3072 3074 3077 3079 3081 3083 3085 3087 3087 3087 3089 3092 3093 3093 3096 3099 3101 3104 3106 3108 3110 3112 3114 3115 3117 3118 3118 3119 3121 3122 3122
2985 2986 2988 2990 2992 2993 2994 2994 2995 2996 2997 2998 2999 2998 2999 2999 3000 3000 3000 3001 3001 3002 3003 3003 3003 3004 3006 3009 3011 3014 3017 3019 3021 3024 3026 3028 3029 3032 3035 3038 3040 3043 3046 3049 3051 3054 3055 3056 3056 3057 3058 3060 3061 3062 3064 3067 3069 3071 3073 3075 3078 3080 3082 3085 3086 3087 3087 3088 3090 3092 3093 3095 3097 3100 3102 3104 3107 3109 3111 3113 3114 3115 3116 3117 3118 3120 3121 3121
2986 2988 2989 2991 2992 2994 2994 2995 2996 2996 2997 2997 2997 2997 2998 2999 2999 2999 2999 2999 2999 2999 3000 3001 3002 3003 3005 3008 3011 3013 3016 3018 3021 3023 3025 3027 3029 3031 3034 3037 3039 3042 3045 3048 3050 3053 3054 3055 3056 3057 3058 3060 3062 3063 3064 3066 3068 3070 3072 3074 3077 3079 3081 3083 3085 3086 3087 3088 3089 3091 3093 3094 3096 3099 3100 3103 3106 3108 3110 3112 3113 3114 3115 3116 3117 3119 3120 3120
2988 2989 2991 2992 2992 2993 2994 2995 2996 2996 2996 2996 2997 2998 2999 2999 2998 2997 2997 2996 2996 2996 2998 3000 3002 3003 3005 3008 3011 3014 3016 3018 3019 3022 3024 3026 3028 3030 3032 3035 3038 3041 3044 3046 3049 3051 3053 3054 3056 3056 3057 3059 3061 3062 3064 3066 3067 3069 3072 3074 3076 3078 3080 3082 3084 3085 3087 3088 3089 3091 3092 3094 3096 3097 3099 3102 3105 3108 3110 3111 3112 3113 3114 3115 3116 3118 3119 3119
2989 2990 2991 2992 2993 2994 2995 2995 2995 2995 2996 2996 2997 2998 2998 2998 2997 2996 2995 2994 2994 2995 2997 2999 3002 3004 3006 3009 3012 3015 3016 3017 3019 3021 3023 3025 3027 3030 3031 3033 3036 3039 3043 3045 3048 3050 3052 3054 3055 3056 3056 3058 3061 3062 3064 3066 3067 3068 3071 3073 3075 3077 3079 3081 3083 3085 3086 3088 3089 3090 3091 3093 3095 3096 3099 3102 3105 3108 3109 3110 3111 3112 3114 3115 3116 3117 3118 3119
2990 2992 2992 2993 2994 2995 2995 2995 2995 2995 2996 2997 2997 2998 2998 2998 2997 2996 2994 2992 2993 2995 2997 2998 3001 3004 3007 3010 3012 3014 3015 3017 3019 3021 3023 3025 3027 3029 3031 3033 3036 3038 3041 3044 3047 3049 3051 3053 3055 3056 3057 3060 3062 3063 3064 3066 3067 3069 3070 3072 3075 3077 3078 3080 3082 3084 3086 3087 3088 3089 3090 3092 3093 3095 3098 3102 3105 3107 3108 3109 3110 3111 3113 3114 3115 3116 3117 3118
2992 2993 2993 2994 2995 2995 2995 2996 2996 2997 2997 2998 2998 2999 2998 2998 2998 2997 2994 2993 2994 2997 2998 2999 3000 3003 3007 3009 3012 3013 3015 3017 3019 3022 3024 3027 3028 3030 3031 3033 3035 3038 3041 3043 3046 3048 3050 3052 3054 3055 3058 3061 3062 3063 3065 3067 3068 3070 3071 3072 3074 3076 3078 3080 3082 3083 3085 3087 3088 3089 3090 3091 3093 3095 3097 3100 3103 3106 3107 3108 3109 3111 3112 3113 3114 3116 3116 3117